Pierre, SD

1:01 PM CDT on May 22, 2017 (GMT -0500)
Pierre Regional

Weather History for KPIR - March, 2013

Change the Weather History Date:

Wednesday, March 20, 2013

  Actual Average Record
Temperature  
Mean Temperature 19 °F 36 °F  
Max Temperature 35 °F 47 °F 76 °F (1939)
Min Temperature 3 °F 25 °F -9 °F (1965)
Degree Days  
Heating Degree Days 46 29  
Month to date heating degree days 721 654  
Since 1 July heating degree days 6145 6152  
Cooling Degree Days 0 0  
Month to date cooling degree days 0 0  
Year to date cooling degree days 0 0  
Moisture  
Dew Point 6 °F    
Average Humidity 58    
Maximum Humidity 87    
Minimum Humidity 29    
Precipitation  
Precipitation 0.00 in 0.04 in 0.61 in (1987)
Month to date precipitation T 0.71  
Year to date precipitation 1.66 1.72  
Snow  
Snow 0.00 in 0.10 in 2.20 in (1955)
Month to date snowfall 0.2 4.3  
Since 1 July snowfall 31.9 26.1  
Snow Depth 0.00 in    
Sea Level Pressure  
Sea Level Pressure 30.31 in    
Wind  
Wind Speed 8 mph (ESE)    
Max Wind Speed 21 mph    
Max Gust Speed 24 mph    
Visibility 10 miles    
Events      
T = Trace of Precipitation, MM = Missing Value Source: NWS Daily Summary

Daily Weather History Graph

Daily Weather History Graph

Search for Another Location

Airport or City:

Trip Planner

Search our weather history database for the weather conditions in past years. The results will help you decide how hot, cold, wet, or windy it might be!

Date:

Astronomy

Mar. 20, 2013 Rise Set
Actual Time 7:43 AM CDT 7:53 PM CDT
Civil Twilight 7:14 AM CDT 8:22 PM CDT
Nautical Twilight 6:40 AM CDT 8:57 PM CDT
Astronomical Twilight 6:06 AM CDT 9:31 PM CDT
Moon 1:18 PM CDT (3/20) 3:37 AM CDT (3/20)
Length of Visible Light 13h 08m
Length of Day
12h 10m
First Quarter, 59% of the Moon is Illuminated
Mar 20
First Quarter
Mar 27
Full
Apr 2
Last Quarter
Apr 10
New
Apr 18
First Quarter

Hourly Weather History & Observations

Time (CDT) Temp. Windchill Dew Point Humidity Pressure Visibility Wind Dir Wind Speed Gust Speed Precip Events Conditions
12:53 AM 10.0 °F 1.8 °F 3.0 °F 73% 30.49 in 10.0 mi North 4.6 mph - N/A   Clear
1:53 AM 10.9 °F 2.9 °F 3.9 °F 73% 30.49 in 10.0 mi WNW 4.6 mph - N/A   Clear
2:53 AM 10.0 °F 3.6 °F 3.0 °F 73% 30.49 in 10.0 mi West 3.5 mph - N/A   Clear
3:53 AM 7.0 °F 0.1 °F 1.9 °F 80% 30.49 in 10.0 mi West 3.5 mph - N/A   Clear
4:53 AM 9.0 °F 2.4 °F 3.0 °F 77% 30.48 in 10.0 mi West 3.5 mph - N/A   Clear
5:53 AM 5.0 °F - -0.0 °F 80% 30.47 in 10.0 mi Calm Calm - N/A   Clear
6:53 AM 3.9 °F - -0.0 °F 84% 30.46 in 10.0 mi Calm Calm - N/A   Clear
7:53 AM 5.0 °F - 1.0 °F 84% 30.45 in 10.0 mi Calm Calm - N/A   Clear
8:53 AM 10.0 °F - 6.1 °F 84% 30.44 in 10.0 mi Calm Calm - N/A   Clear
9:53 AM 15.1 °F 7.7 °F 10.0 °F 80% 30.42 in 10.0 mi ESE 4.6 mph - N/A   Clear
10:53 AM 19.9 °F 12.1 °F 9.0 °F 62% 30.40 in 10.0 mi ESE 5.8 mph - N/A   Clear
11:53 AM 24.1 °F 17.0 °F 9.0 °F 53% 30.37 in 10.0 mi ESE 5.8 mph - N/A   Clear
12:53 PM 27.0 °F 18.7 °F 7.0 °F 43% 30.33 in 10.0 mi East 8.1 mph - N/A   Clear
1:53 PM 30.0 °F 22.4 °F 6.1 °F 36% 30.28 in 10.0 mi SE 8.1 mph - N/A   Clear
2:53 PM 33.1 °F 26.1 °F 6.1 °F 32% 30.24 in 10.0 mi East 8.1 mph 16.1 mph N/A   Clear
3:53 PM 34.0 °F 25.5 °F 6.1 °F 31% 30.20 in 10.0 mi SE 11.5 mph - N/A   Clear
4:53 PM 35.1 °F 25.9 °F 6.1 °F 30% 30.17 in 10.0 mi East 13.8 mph - N/A   Clear
5:53 PM 35.1 °F 26.9 °F 7.0 °F 31% 30.14 in 10.0 mi ESE 11.5 mph - N/A   Clear
6:53 PM 32.0 °F 21.2 °F 9.0 °F 38% 30.13 in 10.0 mi ESE 16.1 mph - N/A   Clear
7:53 PM 25.0 °F 12.6 °F 9.0 °F 51% 30.14 in 10.0 mi East 15.0 mph - N/A   Clear
8:53 PM 21.9 °F 7.8 °F 9.0 °F 58% 30.12 in 10.0 mi East 17.3 mph - N/A   Clear
9:53 PM 19.0 °F 5.6 °F 7.0 °F 59% 30.12 in 10.0 mi East 13.8 mph - N/A   Clear
10:53 PM 17.1 °F 3.0 °F 7.0 °F 65% 30.10 in 10.0 mi East 13.8 mph - N/A   Clear
11:53 PM 17.1 °F 4.3 °F 8.1 °F 68% 30.09 in 10.0 mi ESE 11.5 mph - N/A   Clear